TimeAKDT,TemperatureF,Dew PointF,Humidity,Sea Level PressureIn,VisibilityMPH,Wind Direction,Wind SpeedMPH,Gust SpeedMPH,PrecipitationIn,Events,Conditions,WindDirDegrees,DateUTC
12:53 AM,28.0,19.9,72,30.30,10.0,ENE,13.8,-,N/A,,Overcast,60,2013-04-04 08:53:00
1:53 AM,28.0,18.0,66,30.30,10.0,ENE,16.1,23.0,N/A,,Overcast,60,2013-04-04 09:53:00
2:53 AM,27.0,16.0,63,30.30,10.0,ENE,12.7,-,N/A,,Overcast,60,2013-04-04 10:53:00
3:53 AM,27.0,15.1,61,30.31,10.0,ENE,12.7,-,N/A,,Scattered Clouds,70,2013-04-04 11:53:00
4:53 AM,26.1,12.9,58,30.31,10.0,ENE,10.4,-,N/A,,Mostly Cloudy,60,2013-04-04 12:53:00
5:53 AM,21.9,12.0,66,30.31,10.0,NE,10.4,-,N/A,,Scattered Clouds,40,2013-04-04 13:53:00
6:53 AM,21.9,12.0,66,30.30,10.0,NE,12.7,-,N/A,,Scattered Clouds,40,2013-04-04 14:53:00
7:53 AM,21.9,12.0,66,30.30,10.0,NE,15.0,-,N/A,,Mostly Cloudy,40,2013-04-04 15:53:00
8:53 AM,21.9,10.9,63,30.30,10.0,NE,13.8,-,N/A,,Mostly Cloudy,40,2013-04-04 16:53:00
9:53 AM,21.9,10.9,63,30.30,10.0,NNE,13.8,-,N/A,,Scattered Clouds,30,2013-04-04 17:53:00
10:53 AM,24.1,10.9,57,30.28,10.0,NE,16.1,-,N/A,,Scattered Clouds,40,2013-04-04 18:53:00
11:53 AM,25.0,12.9,60,30.27,10.0,NE,15.0,-,N/A,,Scattered Clouds,40,2013-04-04 19:53:00
12:53 PM,27.0,14.0,58,30.27,10.0,NE,15.0,21.9,N/A,,Scattered Clouds,50,2013-04-04 20:53:00
1:53 PM,28.9,15.1,56,30.26,10.0,NE,13.8,-,N/A,,Scattered Clouds,40,2013-04-04 21:53:00
2:53 PM,30.9,16.0,54,30.24,10.0,NNE,11.5,-,N/A,,Scattered Clouds,30,2013-04-04 22:53:00
3:53 PM,30.9,16.0,54,30.22,10.0,NNE,6.9,-,N/A,,Scattered Clouds,30,2013-04-04 23:53:00
4:53 PM,30.0,14.0,51,30.22,10.0,NE,6.9,-,N/A,,Mostly Cloudy,50,2013-04-05 00:53:00
5:53 PM,26.1,12.9,58,30.20,10.0,East,9.2,-,N/A,,Mostly Cloudy,100,2013-04-05 01:53:00
6:53 PM,28.0,12.0,51,30.18,10.0,NE,13.8,-,N/A,,Mostly Cloudy,50,2013-04-05 02:53:00
7:53 PM,26.1,10.9,53,30.17,10.0,NE,9.2,-,N/A,,Mostly Cloudy,50,2013-04-05 03:53:00
8:53 PM,24.1,8.1,51,30.15,10.0,NNE,12.7,-,N/A,,Mostly Cloudy,30,2013-04-05 04:53:00
9:53 PM,21.9,6.1,51,30.13,10.0,North,5.8,-,N/A,,Mostly Cloudy,360,2013-04-05 05:53:00
10:53 PM,19.9,7.0,57,30.13,10.0,NE,9.2,-,N/A,,Mostly Cloudy,40,2013-04-05 06:53:00
11:53 PM,19.9,6.1,55,30.12,10.0,NNE,9.2,-,N/A,,Mostly Cloudy,30,2013-04-05 07:53:00